This demonstration page uses our WeatherBlox Daily Observations layout. Learn more.

Left ArrowRight Arrow

Hourly Observations for August 6, 2015

Temp ( °F °C ) Dew Point ( °F °C ) Humidity (%) Winds ( mph kmh ) Pressure ( in mb ) Visibility ( mi km ) Precip ( " mm )
12:51 am 00:51 Clear 89 31.7 39 3.9 17 17 NW 12 19 29.73 1007 10 16 0.00 0.00
1:51 am 01:51 Clear 88 31.1 39 3.9 18 18 NW 10 17 29.72 1007 10 16 0.00 0.00
2:51 am 02:51 Clear 84 28.9 40 4.4 21 21 WNW 9 15 29.73 1007 10 16 0.00 0.00
3:51 am 03:51 Clear 83 28.3 41 5 23 23 WNW 6 9 29.74 1007 10 16 0.00 0.00
4:51 am 04:51 Clear 85 29.4 43 6.1 23 23 NW 16 26 29.75 1008 10 16 0.00 0.00
5:51 am 05:51 Sunny 85 29.4 48 8.9 28 28 NW 12 19 29.78 1009 10 16 0.00 0.00
6:51 am 06:51 Sunny 86 30 54 12.2 33 33 NW 13 20 29.80 1009 10 16 0.00 0.00
7:51 am 07:51 Sunny 89 31.7 58 14.4 35 35 NW 18 30 29.82 1010 10 16 0.00 0.00
8:51 am 08:51 Sunny 91 32.8 59 15 34 34 NW 20 31 29.82 1010 10 16 0.00 0.00
9:51 am 09:51 Sunny 93 33.9 58 14.4 31 31 NW 22 35 29.82 1010 10 16 0.00 0.00
10:51 am 10:51 Sunny 96 35.6 57 13.9 27 27 WNW 21 33 29.81 1009 10 16 0.00 0.00
11:51 am 11:51 Sunny 99 37.2 55 12.8 23 23 WNW 22 35 29.78 1009 10 16 0.00 0.00
12:51 pm 12:51 Sunny 99 37.2 52 11.1 21 21 WNW 21 33 29.77 1008 10 16 0.00 0.00
1:51 pm 13:51 Mostly Sunny 100 37.8 54 12.2 21 21 WNW 26 43 29.75 1007 10 16 0.00 0.00
2:51 pm 14:51 Sunny 99 37.2 54 12.2 22 22 WNW 26 43 29.72 1007 10 16 0.00 0.00
3:51 pm 15:51 Mostly Sunny 99 37.2 54 12.2 22 22 NW 20 31 29.70 1006 10 16 0.00 0.00
4:51 pm 16:51 Mostly Sunny 87 30.6 76 24.4 70 70 NW 18 30 29.96 1014 10 16 0.00 0.00
5:51 pm 17:51 Sunny 95 35 48 8.9 20 20 NW 15 24 29.96 1015 10 16 0.00 0.00
6:51 pm 18:51 Sunny 94 34.4 48 8.9 21 21 WNW 10 17 29.70 1006 10 16 0.00 0.00
7:51 pm 19:51 Clear 91 32.8 47 8.3 22 22 W 7 11 29.72 1007 10 16 0.00 0.00
8:51 pm 20:51 Clear 86 30 49 9.4 28 28 WNW 5 7 29.75 1008 10 16 0.00 0.00
9:51 pm 21:51 Clear 85 29.4 51 10.6 31 31 NNW 7 11 29.77 1008 10 16 0.00 0.00
10:51 pm 22:51 Clear 82 27.8 49 9.4 32 32 VRB 3 6 29.76 1008 10 16 0.00 0.00
11:51 pm 23:51 Clear 80 26.7 50 10 35 35 Calm 29.75 1008 10 16 0.00 0.00

Powered by AerisWeather